[[{"header":{"parameterUnit":"m.s-1","parameterCategory":1,"la1":30.2992,"la2":30.254,"lo1":-89.0895,"lo2":-89.0443,"dy":0.0025,"dx":0.0025,"nx":19,"ny":19,"refTime":"2026-04-16T09:00:00:Z","depth":0,"parameterNumber":2,"parameterNumberName":"U-component_of_WINDS"},"data":[0,0,0,-1.526,-1.5258,-1.5187,-1.5187,-1.5114,-1.5113,0,0,0,0,0,0,0,0,0,0,0,-1.5292,-1.5292,-1.526,-1.5258,-1.5187,-1.5187,-1.5114,-1.5113,0,0,0,0,0,0,0,0,0,0,0,-1.5292,-1.5292,-1.5292,-1.5258,-1.5187,-1.5187,-1.5114,-1.5161,0,0,0,0,0,0,0,0,0,0,-1.5227,-1.5268,-1.5292,-1.5292,-1.5258,-1.5188,-1.5187,-1.5163,-1.5158,-1.5154,0,-1.5154,0,-1.5133,-1.5109,-1.5109,0,0,0,-1.5249,-1.5273,-1.5243,-1.5292,-1.5257,-1.5188,-1.5217,-1.516,-1.5154,-1.5147,-1.5153,-1.5149,-1.5131,-1.5109,-1.5109,-1.5117,-1.5118,0,0,-1.5253,-1.5285,-1.5247,-1.524,-1.5253,-1.5219,-1.5215,-1.5156,-1.5164,-1.5152,-1.5147,-1.513,-1.5109,-1.5108,-1.5117,-1.5117,0,0,0,-1.5271,-1.5289,-1.526,-1.5244,-1.523,-1.5217,-1.5212,-1.5166,-1.5154,-1.5146,-1.5129,-1.5108,-1.5108,-1.5116,-1.5117,-1.5172,0,0,0,-1.5272,-1.5299,-1.5262,-1.5281,-1.5231,-1.5197,-1.5224,-1.5158,-1.5151,-1.513,-1.5108,-1.5107,-1.5116,-1.5117,-1.5169,-1.5192,0,0,0,-1.5293,-1.5301,-1.5295,-1.5283,-1.5254,-1.5197,-1.5182,-1.5156,-1.5141,-1.5109,-1.5107,-1.5115,-1.5116,-1.5167,-1.5188,-1.5204,0,0,0,-1.5324,-1.5343,-1.5296,-1.5311,-1.5255,-1.5233,-1.5182,-1.5163,-1.5143,-1.5108,-1.5116,-1.5117,-1.5166,-1.5186,-1.5202,-1.5224,-1.5236,0,0,-1.5366,-1.535,-1.5356,-1.5312,-1.5307,-1.5241,-1.5243,-1.5193,-1.5159,-1.5133,-1.5133,-1.517,-1.5188,-1.5204,-1.5293,-1.5303,0,0,0,-1.538,-1.5386,-1.5377,-1.536,-1.5323,-1.5294,-1.524,-1.5222,-1.5198,-1.5153,-1.5179,-1.5189,-1.5197,-1.5206,-1.5214,-1.5219,-1.5122,-1.5122,-1.5122,-1.5486,-1.5444,-1.5453,-1.5403,-1.5386,-1.5332,-1.5315,-1.5281,-1.5241,-1.5249,-1.524,-1.53,-1.5312,-1.5318,-1.5324,-1.5248,-1.5249,-1.5249,-1.5249,-1.5545,-1.5546,-1.5496,-1.5486,-1.5441,-1.5431,-1.538,-1.5353,-1.5338,-1.5302,-1.5307,-1.5272,-1.533,-1.5333,-1.5253,-1.5252,-1.5252,-1.5251,-1.5251,-1.561,-1.5603,-1.5581,-1.5553,-1.5536,-1.5484,-1.5472,-1.5431,-1.5393,-1.5398,-1.5385,-1.5384,-1.5378,-1.5395,-1.5395,-1.5395,-1.5395,-1.5395,-1.5395,-1.5686,-1.566,-1.5655,-1.5619,-1.5603,-1.5577,-1.5524,-1.5507,-1.5477,-1.5448,-1.5448,-1.5409,-1.5344,-1.5328,-1.5398,-1.5398,-1.5397,-1.5397,-1.5397,-1.5761,-1.5738,-1.5731,-1.5716,-1.567,-1.5656,-1.5605,-1.5574,-1.5554,-1.555,-1.551,-1.5468,-1.5447,-1.544,-1.5427,-1.5519,-1.5519,-1.5519,-1.5519,-1.5816,-1.5802,-1.5787,-1.5764,-1.5738,-1.5691,-1.5685,-1.5644,-1.5597,-1.5582,-1.5563,-1.5542,-1.5537,-1.5519,-1.5511,-1.5498,-1.5605,-1.5605,-1.5605,-1.586,-1.5842,-1.5845,-1.58,-1.5762,-1.573,-1.5723,-1.5699,-1.5641,-1.5608,-1.557,-1.5566,-1.5532,-1.5523,-1.5489,-1.5476,-1.5451,0,0]},{"header":{"parameterUnit":"m.s-1","parameterCategory":1,"la1":30.2992,"la2":30.254,"lo1":-89.0895,"lo2":-89.0443,"dy":0.0025,"dx":0.0025,"nx":19,"ny":19,"refTime":"2026-04-16T09:00:00:Z","depth":0,"parameterNumber":3,"parameterNumberName":"V-component_of_WINDS"},"data":[0,0,0,4.1063,4.1063,4.1072,4.1072,4.1093,4.1094,0,0,0,0,0,0,0,0,0,0,0,4.1066,4.1066,4.1062,4.1063,4.1072,4.1072,4.1093,4.1094,0,0,0,0,0,0,0,0,0,0,0,4.1066,4.1066,4.1067,4.1063,4.1072,4.1072,4.1093,4.1083,0,0,0,0,0,0,0,0,0,0,4.1073,4.1082,4.1066,4.1067,4.1063,4.1072,4.1072,4.1082,4.1084,4.1094,0,4.1104,0,4.11,4.1096,4.1096,0,0,0,4.1058,4.1081,4.1078,4.1067,4.1063,4.1072,4.1066,4.1083,4.1084,4.1096,4.1105,4.1105,4.11,4.1096,4.1096,4.1171,4.1172,0,0,4.1058,4.1071,4.1077,4.1079,4.1078,4.1066,4.1067,4.1084,4.1094,4.1105,4.1106,4.11,4.1096,4.1096,4.117,4.1171,0,0,0,4.106,4.1071,4.1067,4.1078,4.1079,4.1067,4.1067,4.1093,4.1091,4.1106,4.11,4.1096,4.1097,4.117,4.1171,4.1211,0,0,0,4.1059,4.1072,4.1067,4.1075,4.1079,4.1086,4.1077,4.109,4.1091,4.11,4.1096,4.1097,4.1169,4.117,4.1209,4.1228,0,0,0,4.1063,4.1072,4.1076,4.1076,4.108,4.1086,4.1084,4.109,4.1089,4.1096,4.1097,4.1169,4.117,4.1206,4.1224,4.1251,0,0,0,4.1072,4.1111,4.1076,4.1119,4.108,4.1111,4.1084,4.1106,4.1117,4.1096,4.1169,4.1171,4.1206,4.1222,4.1249,4.1276,4.1288,0,0,4.1129,4.1118,4.1142,4.1111,4.1152,4.1109,4.1155,4.1153,4.1141,4.1162,4.1163,4.1209,4.1224,4.1251,4.1356,4.1366,0,0,0,4.1165,4.1182,4.119,4.1201,4.1201,4.1202,4.1191,4.1191,4.1208,4.1155,4.1226,4.1235,4.125,4.1262,4.1271,4.1283,4.1177,4.1177,4.1177,4.1263,4.1247,4.1286,4.1271,4.1283,4.1272,4.128,4.1277,4.1257,4.1275,4.128,4.1346,4.1361,4.1367,4.138,4.1294,4.1294,4.1294,4.1294,4.1345,4.1366,4.134,4.1368,4.1351,4.1374,4.1366,4.1351,4.1371,4.134,4.1353,4.132,4.1379,4.1389,4.1297,4.1297,4.1296,4.1296,4.1296,4.1406,4.1414,4.1413,4.1429,4.1443,4.1427,4.1447,4.1431,4.1416,4.1428,4.1432,4.1432,4.1428,4.1432,4.1432,4.1432,4.1432,4.1433,4.1433,4.147,4.1468,4.1487,4.1491,4.1497,4.1502,4.1493,4.1498,4.15,4.1486,4.1486,4.1465,4.1388,4.1368,4.1436,4.1435,4.1435,4.1435,4.1434,4.1557,4.1535,4.1564,4.157,4.1574,4.1589,4.1569,4.1581,4.1583,4.1594,4.157,4.1516,4.1504,4.1497,4.1481,4.1574,4.1574,4.1574,4.1574,4.1608,4.1601,4.1628,4.1638,4.1647,4.1632,4.1666,4.166,4.165,4.165,4.1635,4.1612,4.1606,4.1598,4.1588,4.1573,4.1687,4.1687,4.1687,4.166,4.1654,4.1685,4.1676,4.1678,4.168,4.1711,4.1725,4.1709,4.1692,4.165,4.1645,4.1609,4.1598,4.1578,4.1564,4.1535,0,0]}]]